Overview Statistics Trail Chart Weather Telemetry Raw packets
 

This is the latest recevied weather packets stored in our database for station/object WABI. If no packets are shown the sender has not sent any weather packets the latest 10 day(s).

<< 5 6 7 8 9 10 11 >>
Time Temp. Humidity Pressure Rain* Wind** Luminosity Snow
1787613257 22.22° C 94% 1014 hPa 0 mm - - -
1787611288 21.11° C 94% 1013 hPa 0 mm - - -
1787609315 21.11° C 94% 1013 hPa 0 mm - - -
1787607350 21.11° C 94% 1013 hPa 0 mm - - -
1787605245 22.22° C 94% 1013 hPa 0 mm - - -
1787599375 23.89° C 89% 1013 hPa 0 mm - - -
1787597414 23.89° C 89% 1013 hPa 0 mm - - -
1787595449 23.89° C 89% 1013 hPa 0 mm - - -
1787593453 23.89° C 89% 1013 hPa 0 mm - - -
1787591488 23.89° C 89% 1013 hPa 0 mm - - -
1787589519 23.89° C 89% 1013 hPa 0 mm - - -
1787585536 22.78° C 94% 1013 hPa 0 mm - - -
1787583510 22.78° C 94% 1013 hPa 0 mm - - -
1787581490 22.78° C 94% 1013 hPa 0 mm - - -
1787579499 22.78° C 94% 1013 hPa 0 mm - - -
1787577431 22.78° C 94% 1013 hPa 0 mm - - -
1787575446 23.89° C 94% 1013 hPa 0 mm - - -
1787573347 23.89° C 94% 1013 hPa 0 mm - - -
1787571327 23.89° C 94% 1012 hPa 0 mm - - -
1787569338 23.89° C 94% 1012 hPa 0 mm - - -
1787567334 27.78° C 79% 1011 hPa 0 mm - - -
1787565360 27.78° C 79% 1011 hPa 0 mm - - -
1787563381 30° C 66% 1010 hPa 0 mm - - -
1787561334 30° C 66% 1010 hPa 0 mm - - -
1787555365 31.11° C 62% 1010 hPa 0 mm - - -

* Rain latest hour (hover to see other rain measurements)
** Current wind speed in m/s (hover to see current wind gust speed)